timestamp,gas_concentrations,,corrected_fluxes_and_quality_flags,,,,,,,,,,storage_terms,,,turbulence,,,footprint,,
ISOdate,CO2_1_1_1,H2O_1_1_1,Tau_1_1_1,QcTau_1_1_1,H_1_1_1,QcH_1_1_1,LE_1_1_1, QcLE_1_1_1,Fc_1_1_1, QcFc_1_1_1,E_1_1_1, QcE_1_1_1,Sa_1_1_1,Sw_1_1_1,Sc_1_1_1,ustar_1_1_1,MO_length_1_1_1,ZL_1_1_1,Fetchmax_1_1_1,Fetch70_1_1_1,Fetch90_1_1_1
yyyymmddHHMM,[µmol+1mol_a-1],[mmol+1mol_a-1],[kg+1m-1s-2],[#],[W+1m-2],[#],[W+1m-2],[#],[µmol+1s-1m-2],[#],[mmol+1s-1m-2],[#],[W+1m-2],[W+1m-2],[µmol+1s-1m-2],[m+1s-1],[m],[#],[m],[m],[m]
201210150030,376.86801030156909,7.1105779856545279,0.51067089466571480,0,-43.699136278237816,1,135.13243241073260,1,-3.3236455870696200,2,3.0060094492924465,1,-9999.,-9999.,-9999.,0.65295478813515573,535.15467377076129,4.03621626768274691E-002,106.57135429038516,194.84642483297819,291.91545006710555
201210150100,378.35798868740414,6.8932395421290185,0.42430559335911122,0,-1.6843612726098378,2,19.620083355411516,1,0.44622804431650431,2,0.43635129022074243,1,-5.4355223654047728,-7.8865904811288274,1.2024530339041015,0.59487540439003250,10499.420133047335,2.05725647000382008E-003,104.80441648753276,191.61589899345540,287.07553368061770
201210150130,378.15691378731191,6.9069815965908985,0.35128796069749652,0,-13.912954132582085,0,18.355053699039942,0,0.89666482538752568,0,0.40817524828070428,0,-2.5338559493703197,0.49896611575447558,-0.16235596769353514,0.54113830681624919,956.89812547894849,2.25729358485144138E-002,110.56754609505407,202.15273797191924,302.86163853380918
201210150200,378.39600567105953,6.9805148048706736,0.24110719323533508,0,-15.771856335779329,0,15.892727684253041,0,1.1124748282781880,0,0.35339368938942273,0,-1.7499796675970016,2.6710217199216246,0.19311636870121640,0.44824541292325837,479.78732941467791,4.50199467050352714E-002,100.97350988115326,184.61177991199762,276.58208697899107
201210150230,378.74381528682119,7.0380441111194081,0.23884266784521438,0,-19.050326382114207,0,15.328251912187008,0,1.1512757392591868,0,0.34084761813934500,0,0.41591735265291574,2.0896546003556442,0.28092771670551303,0.44614094956067041,391.67077859856215,5.51483571924538188E-002,98.175659616025513,179.49641729876933,268.91834164326326
201210150300,379.22727421249766,7.0953556287885595,0.22729919844490917,0,-9.9902038212960047,0,8.3064555596210745,0,0.80643973039180761,0,0.18471326737660665,0,0.83970792811855199,2.0817160895359694,0.39050043051703381,0.43522650553578218,693.47362472218265,3.11475436555403683E-002,106.42984310135374,194.58769724674985,291.52782899659650
201210150330,379.51363923899919,7.0968937778419017,0.40454675677524066,0,-18.126155312395529,0,19.158721487772315,0,1.7173729296689888,0,0.42609126183212159,0,3.0677061705475865,5.58490617755714111E-002,0.23124563292597775,0.58070432207192313,908.00484309054889,2.37884193728314583E-002,104.13837141420726,190.39815617523541,285.25113303712942
201210150400,379.42633221278749,6.9189432987692934,0.29937919243960365,0,-11.887363679014111,0,16.747875009876189,0,1.1341999058663781,0,0.37247505236323458,0,7.84853893280642173E-002,-6.4636812142848887,-7.05289538788317349E-002,0.49944136719699511,881.05930033021752,2.45159434693038338E-002,94.565144777869534,172.89524465997346,259.02858213919967
201210150430,379.57488044336975,6.8179456353099335,0.41641927982802812,0,-19.197148394295450,0,25.276363209941966,0,1.3053501901333604,0,0.56208129335657475,0,-3.0237089517330742,-3.6715000978734098,0.12008375091123617,0.58881863565400105,894.13998632479627,2.41572911740397245E-002,109.86061249408958,200.86023788444817,300.92523787842475
201210150500,379.43746099811011,6.5521753844801793,0.47056553102837517,0,-23.182718190528540,0,39.097995657764429,0,1.7530517220394710,0,0.86937939536364761,0,-1.6971879979174698,-9.6668468552980329,-0.11114284567628484,0.62574304458468766,888.74092020174442,2.43040457674625759E-002,104.72054813802686,191.46256090212046,286.84580527793929
201210150530,379.72794738599038,6.5848157067253847,0.30180024894759022,0,-12.839680008398169,0,16.968660902684540,0,0.97989364721118277,0,0.37724943895220187,0,-4.2231441641008152,1.1884772328666438,0.23514905985534501,0.50090617887950384,823.26580792933282,2.62369696299279490E-002,108.91875827039327,199.13822797453352,298.34535324208287
201210150600,379.53873679148029,6.4030534158671486,0.51713041445363084,0,-18.658846303999763,0,44.724961511187168,0,2.0943352199050835,0,0.99421872876919215,0,-2.8096259149928775,-6.6240216950936421,-0.15328348761364527,0.65541358690738927,1269.3340701706231,1.70167968445820890E-002,111.19138862073183,203.29332107322693,304.57043986102150
201210150630,379.66344444194328,6.3868994226859268,0.28071208647034129,0,-16.316818413960107,1,21.704114136975800,1,1.3556836215332602,1,0.48241932052011338,1,-2.8271484058471068,-0.58914600495794345,0.10109246046964893,0.48273273784257542,580.04153675137263,3.72387124566538816E-002,110.90244307165929,202.76503645506602,303.77897323695510
201210150700,380.08040979359458,6.4755870163005511,0.29655425817336845,0,-5.5332225947197058,0,15.633743051718067,0,0.98317651060606692,0,0.34747602763248653,0,-1.1897207049848644,3.2361935165505642,0.33816873937445907,0.49605709810510568,1856.4737665327730,1.16349610694155142E-002,110.85279266240487,202.67425967176308,303.64297307387159
201210150730,380.27350781266773,6.5136300361991504,0.23171066120801651,0,-3.0121683961566892,0,13.906012806275593,0,0.40004509467056293,0,0.30906664383253007,0,-0.70948681616836673,1.3889612744463053,0.15669043369236094,0.43836930713332822,2354.2190568309456,9.17501705600672936E-003,100.49639802318342,183.73946726860626,275.27520368301532
201210150800,380.39864718911338,6.5737055162139475,0.21936077868641340,0,11.379661563454745,1,17.122666380715483,0,-5.29322055015187809E-002,1,0.38058260852739917,0,1.6081476522151874,2.1931763916462006,0.10154249794463832,0.42653725453206581,-574.14433707800788,-3.76212018565381251E-002,112.05566449649007,204.87349302076572,306.93782538346363
201210150830,380.10610563683656,6.4355004493746879,0.48107767852616939,0,3.9394403890119682,1,42.995958153756476,1,-0.11591180362700126,2,0.95584232931757296,1,4.6493486318109918,-5.0428067159145273,-0.23729825602145038,0.63175275227189043,-5390.0746148445451,-4.00736567551634310E-003,117.08244486278856,214.06405073972900,320.70695558535789
201210150900,379.81290799468519,6.4201655878886630,0.40470343352424748,0,27.181370468610734,1,26.311195384039376,0,-0.97484288772220817,1,0.58505292324707714,0,5.4983937971882995,-0.55920658354786823,-0.23774285059270325,0.57954440570663501,-603.28871297711794,-3.58037528887421158E-002,118.68509283178024,216.99420236539933,325.09685666414663
201210150930,379.69561846507673,6.3503777370637771,0.35328541841204397,0,14.131809525725341,0,22.250145185093483,0,-1.0111894324459874,0,0.49484426396146919,0,4.6458535975810156,-2.5434782404858636,-9.50699221684116053E-002,0.54157291309736899,-947.13267719592614,-2.28056749809845000E-002,103.96761719476682,190.08596300283321,284.78341077582650
201210151000,379.88842657485924,6.3584921578989508,0.31261744494997012,0,43.680353237502615,0,28.143508742254049,0,-2.1121476871857641,0,0.62611038029430388,0,7.8333820113159938,0.29528581656621583,0.15609285319335969,0.50975845392093866,-255.53226004911710,-8.45294445243358339E-002,115.59239309414271,211.33976087900706,316.62547294338697
201210151030,380.57045839944880,6.3122629109980180,0.48059981357181453,0,146.03566320978160,0,55.335410824115904,0,-2.8126490486841922,0,1.2321273170487175,0,21.632764772875955,-1.6750684274717800,0.55026618064204613,0.63312665270448820,-146.42795084156103,-0.14751282030417665,122.65492245296895,224.25231702515140,335.97083502611230
201210151100,380.81758848963511,6.3643138327782145,0.22961538314858798,0,89.201519307581819,0,28.625570120214377,0,-3.8744281318913201,0,0.63755991799928702,0,6.5070172884147670,1.8836586609774433,0.19918942163287448,0.43784192167558600,-79.286944741431043,-0.27242820454794264,106.09556111903240,193.97652316929637,290.61217885807270
201210151130,380.67704120862822,6.4352139158976120,0.21811154932356763,1,152.47305625810370,0,51.873211008192378,0,-2.8858054893531682,0,1.1559646654428180,0,13.305416100748072,2.5586448625524421,-0.11302828587251966,0.42721844313741675,-43.085007590989072,-0.50133448286817739,109.21912630857622,199.68739654580432,299.16810783346239
201210151200,380.86068265329493,6.3852696161295484,0.41417068505504173,1,207.91011122255230,1,65.305119369269548,1,-5.0574659048599813,1,1.4564781763860315,1,20.086794896397212,-1.7959965885398101,0.14728110484399004,0.58950895831057359,-83.038231738291799,-0.26012114598099628,131.55491238588382,240.52433712872266,360.34928629154729
201210151230,380.97574645546337,6.3949533975217747,0.24489447351093499,1,167.04685258019103,0,37.606806948001427,0,-3.6591878734271059,0,0.83934519457104662,0,17.871534905107470,0.34686349306099884,9.19870062630430974E-002,0.45403078916295786,-47.202883348433460,-0.45759916487637292,106.81805520815092,195.29747279187617,292.59120210123410
201210151300,380.78882941016133,6.4628229687581271,0.18357688132697969,0,137.88194520531991,0,41.620150732340711,0,-2.9742915868299145,0,0.92942297798770868,0,13.228822407702641,2.4243013724104618,-0.14909743276299114,0.39354431706555221,-37.237042045379724,-0.58006755675374799,94.090317824100339,172.02710955019370,257.72795754982036
201210151330,380.60054006832058,6.4219904556178244,0.31201868351928874,1,174.72242786249973,0,48.463082178965934,0,-2.7009098089805033,0,1.0831661976329914,0,20.934477469744504,-1.4525954973987878,-0.14970916493093528,0.51389086138235285,-65.429162399681786,-0.33012802254832246,112.32847591901459,205.37227930988109,307.68509813532052
201210151400,380.86233119188518,5.9203526693771007,0.34523867560366994,0,124.77200608779623,0,52.922038559742035,0,-3.5120415219048935,0,1.1829322652137773,0,2.1924961960256995,-17.834138225087752,0.20803677634613141,0.54065192770573467,-106.67034328571494,-0.20249302040910022,120.78780832403287,220.83863691194711,330.85652016257114
201210151430,380.74062453810166,5.9331267566447687,0.15703888274753350,0,90.437921894232147,0,29.348309739158118,0,-1.7789153536286690,0,0.65624151328196323,0,8.7748292638579635,0.45342614890221922,-9.65987733205582039E-002,0.36486032363728477,-45.235860388047975,-0.47749727350619953,99.803684922678727,182.47296679137168,273.37775518151449
201210151500,380.61285324358812,6.1259517918105546,0.23544690081358993,1,115.77395358273695,1,35.057212471052793,1,-2.2298824238964228,1,0.78416849615810669,1,8.4322870575699387,6.8329316666604010,-0.10127656501517884,0.44707070127087767,-65.009248518784418,-0.33226041666607919,123.54431807020784,225.87841587164743,338.40702741216916
201210151530,380.76621232175927,6.2630733683826891,7.11819132548293654E-002,0,61.656199987498020,0,17.483181436148573,0,-2.1878429152755650,0,0.39122389655854772,0,9.6104237833862420,4.8491413131930079,0.12135940585343645,0.24602638886718603,-20.341808137316178,-1.0618525085966042,91.835172220239500,167.90398414453546,251.55076436032473
201210151600,381.00235407461588,6.2659248103597651,3.72111802165392969E-002,1,40.183585564357841,1,17.031911849006157,1,-0.58703583958265204,1,0.38124636459756783,1,7.6241515364123060,0.10066838477281756,0.18661375630121313,0.17800424555554789,-11.819719479063268,-1.8274545380083620,7.6573192021719088,27.000000000000000,67.000000000000000
201210151630,380.66656959799263,6.3025473213749210,5.71393086276262858E-003,0,3.1082529776497747,0,4.1000949851403394,0,-0.13480324754302159,0,9.17774133123554631E-002,0,-2.30362759473960038E-002,1.2930736243220591,-0.26538577774308419,6.97494944615751900E-002,-9.1940328918776277,-2.3493498722505435,68.851058097037409,207.00000000000000,454.00000000000000
201210151700,380.32594315850304,6.4633045286396591,6.85766604238804370E-003,1,-2.9385586703425659,0,1.7137078801294197,1,0.13743926735227771,1,3.83393610713887931E-002,1,-13.000442896748391,5.6892218820386038,-0.26969248884368513,7.63463428361529362E-002,12.751718870056697,1.6938892881900527,290.46831890978342,2514.0000000000000,-9999.
201210151730,379.66872633946912,6.4714430842031883,2.38927062962318408E-003,1,-0.98652204772475893,2,4.1244386645501381,1,0.18919689998470612,1,9.22223518388879671E-002,1,-13.196212624874414,0.28876490807120669,-0.52140728513357848,4.50188554752970690E-002,7.7876882222612043,2.7736087248916990,1834.7364384129762,-9999.,-9999.
201210151800,379.58972956638661,6.3429285160877740,5.19985728309839412E-003,1,1.1233676747147818,1,5.35449275279349934E-002,2,-2.05118069108661538E-002,1,1.19709185212324540E-003,2,-3.4709573747034090,-4.5636586079476533,-6.27161339160616504E-002,6.63890051315708662E-002,-21.935013557868938,-0.98472699563257149,303.56476145841253,901.00000000000000,1962.0000000000000
201210151830,379.86761768350669,6.3662322422578130,7.25627950883199740E-003,1,-6.1862980424514955,1,4.6784742446837306,0,0.57003483265293098,1,0.10457528957945718,0,-4.7082847765415154,0.82825958864667681,0.22076789304850214,7.83991517242289132E-002,6.5593586228598584,3.2930048868989075,1445.7648851228328,-9999.,-9999.
201210151900,381.39653185780691,6.5287781259577153,2.76665227379403016E-002,0,-18.590430130153557,0,19.089502475244728,0,2.2138296412302103,0,0.42641055839880604,0,-16.326330218835423,5.7952940135834963,1.2176316974116101,0.15290144147134746,16.191723285029589,1.3340148926563458,497.13933508351386,4873.0000000000000,-9999.
201210151930,381.60715885243872,6.4972532704676684,7.94377060408437280E-002,1,-36.349662481213642,0,32.296373486244761,0,4.3945668062751277,0,0.72105822155767818,0,-12.171152782823739,-1.1266820281892844,0.16806561450303292,0.25883860082886551,40.173716598269110,0.53766496677408837,117.36343821960266,214.57779621421980,321.47663992282764
201210152000,380.41334023385764,6.3304357232958877,6.76495719328222139E-002,0,-26.459027515125282,0,6.8566496737304474,0,1.5171683997932544,0,0.15304527166862752,0,-6.1067491479579559,-5.9691938266865581,-0.95349902595443004,0.23874042219829583,43.306378286504305,0.49877179424009405,122.07649177365424,223.19476126236091,334.38642378156078
201210152030,381.32303171519141,6.5266067239329510,5.67027336966113640E-002,1,-21.727272957936474,0,3.8590503652180477,0,1.3541866752478151,0,8.61132844669721953E-002,0,-6.6562627277162099,7.0279606641480257,0.72724099101309991,0.21847936176362320,40.416202090362333,0.53443913289296296,119.88990626141060,219.19698557029864,328.39702730474033
201210152100,381.51397222680663,6.5857069588584638,9.66899145409930438E-002,0,-24.820683743272102,0,6.6660504995054000,0,1.5274353779720162,0,0.14875003108182180,0,-6.98915693087893974E-002,2.1169636984129747,0.15261975472369371,0.28532488387881744,78.792421510618993,0.27413804000285652,121.24459159060221,221.67378240678667,332.10772029727514
201210152130,381.81616708821451,6.5876574743216043,0.19840138449415567,0,-33.630264064581773,0,9.8806702715452559,0,1.9720815841543782,0,0.22047020316228924,0,-1.4052288172728780,6.98529989199764695E-002,0.24148281461445287,0.40876935381036245,170.93676420275798,0.12636251833092496,119.50053234208391,218.48508586132729,327.33047181558959
201210152200,382.37197922080770,6.6199078366879611,0.16271752450434437,0,-32.547372760252685,0,5.6686555904622207,0,1.4926261069726043,0,0.12649026039652977,0,0.76067270216588134,1.1546689443981775,0.44404596124016721,0.37023325418517350,131.22274580526141,0.16460560909200198,115.97341063116035,212.03638245598603,317.66913900677298
201210152230,383.91216368213310,6.6665077864666893,0.26133429884114862,0,-29.653627224324179,0,9.7493692531183775,0,2.4149544360111355,0,0.21749243151893213,0,-6.1611710871525229,1.6704541462789666,1.2316561419951697,0.46897736636314269,292.73961175387910,7.37857096639186888E-002,114.21972991474568,208.83009479860229,312.86553583390446
201210152300,384.52192765204848,6.6687975128019659,0.40321801011956870,0,-35.567426634078672,0,18.980437236140574,0,5.6889376428582121,0,0.42334645055583986,0,-4.3920235186489442,8.21368191606889758E-002,0.48787186127018162,0.58238501346808014,467.34017508118410,4.62190095175270405E-002,119.19561930944722,217.92760759064342,326.49526778026376
201210152330,385.73822337570977,6.7226039712924743,0.34923109504206734,0,-28.300513957929983,0,13.914022146452314,0,3.2521082137029511,0,0.31035465158931203,0,0.89360656891871393,1.9293056511488931,0.97277270655208403,0.54210950117164880,473.63728199330245,4.56045181010591161E-002,119.72007701214115,218.88648353837308,327.93183868003757
201210160000,387.06467213296531,6.7578733746369650,0.26475887710867091,0,-26.799898398305519,0,13.853691868780407,0,3.7580630007264682,0,0.30899710230191907,0,-0.94015273269557786,1.2645724325926539,1.0607791070145893,0.47203868642953123,330.14836534422466,6.54251308422474226E-002,107.70926216558716,196.92688334595030,295.03235602871501
